Clinton Municipal Airport
Wednesday 10:56 PM
Temperature61° (78°/48°)
Dew Point58°
Relative Humidity90
%
Visibility10
mi
Pressure1015.2
mb
Wind DirectionSSE
160°
Wind Speed6
mph
Precipitation Today0.00"

Last 30 Observations

Time PresWx Temp DP Feels RH% Vsby Pressure Ceiling Direction Speed 1h Precip
10:56 PM 61° 58° 90
%
10
mi
1015.2
mb
SSE
160°
6
mph
0.00"
9:56 PM 62° 58° 86
%
10
mi
1015.6
mb
SSE
150°
7
mph
0.00"
8:56 PM 64° 57° 78
%
10
mi
1015.6
mb
SSE
160°
5
mph
0.00"
7:56 PM 65° 56° 73
%
10
mi
1015.2
mb
S
170°
6
mph
0.00"
6:56 PM 67° 56° 68
%
10
mi
1015.2
mb
S
180°
3
mph
0.00"
5:56 PM 75° 57° 75°54
%
10
mi
1015.2
mb
SSW
210°
9
mph
0.00"
4:56 PM 77° 57° 77°50
%
10
mi
1015.2
mb
SSW
200°
8
mph
0.00"
3:56 PM 78° 59° 78°52
%
10
mi
1015.6
mb
S
190°
11
mph
0.00"
2:56 PM 77° 59° 77°54
%
10
mi
1015.9
mb
SW
230°
8
mph
0.00"
1:56 PM 76° 59° 76°56
%
10
mi
1016.9
mb
Variable 3
mph
0.00"
12:56 PM 75° 58° 75°55
%
10
mi
1017.6
mb
SSW
210°
13
mph
0.00"
11:56 AM 74° 60° 74°62
%
10
mi
1018.3
mb
Variable 3
mph
0.00"
10:56 AM 70° 60° 71
%
10
mi
1018.6
mb
Calm 0.00"
7:09 AM BR 48° 48° 100
%
3
mi
1018.6
mb
Calm 0.00"
6:56 AM BR 51° 51° 100
%
2
mi
1018.6
mb
Calm 0.00"
5:56 AM 53° 53° 100
%
10
mi
1018.3
mb
S
190°
3
mph
0.00"
4:56 AM BR 50° 49° 96
%
3
mi
1018.3
mb
E
100°
3
mph
0.00"
3:56 AM 55° 54° 96
%
10
mi
1018.6
mb
Calm 0.00"
2:56 AM 54° 52° 93
%
10
mi
1018.3
mb
Calm 0.00"
1:56 AM 56° 56° 100
%
10
mi
1018.6
mb
Calm 0.00"
12:56 AM 58° 57° 97
%
10
mi
1019.0
mb
SW
220°
3
mph
0.00"
11:56 PM 58° 55° 90
%
10
mi
1019.0
mb
S
180°
3
mph
0.00"
10:56 PM 58° 56° 93
%
10
mi
1019.0
mb
S
180°
5
mph
0.00"
9:56 PM 60° 57° 90
%
10
mi
1019.3
mb
S
170°
5
mph
0.00"
8:56 PM 62° 55° 78
%
10
mi
1019.0
mb
SSW
210°
3
mph
0.00"
7:56 PM 64° 56° 75
%
10
mi
1019.0
mb
SW
220°
5
mph
0.00"
6:56 PM 69° 57° 65
%
10
mi
1019.0
mb
S
190°
6
mph
0.00"
5:56 PM 75° 56° 75°52
%
10
mi
1018.6
mb
SSW
200°
7
mph
0.00"
4:56 PM 78° 56° 78°47
%
10
mi
1019.0
mb
SSW
200°
13
mph
0.00"
3:56 PM 78° 58° 78°50
%
10
mi
1019.3
mb
S
190°
9
mph
0.00"